Location: Bailey Inglish Elementary School
(33.5826°N, 96.1780°W)
Time: 18:00:32
(UTC+00:00)

ISS - Pass Details

Date: 26 June 2024
Orbit: 410 x 424 km, 51.6° (Epoch: 12 July)

Event Time Altitude Azimuth Distance (km) Brightness Sun altitude
Exits shadow 08:45:23 30° 357° (N) 767 -2.0 -24.3°
Drops below altitude 10° 08:47:37 10° 30° (NNE) 1,486 0.1 -24.1°
Sets 08:49:49 0° 40° (NE) 2,355 1.5 -23.8°
